Regional Weather Roundup
Issued by NWS Memphis, TN

Home | Current Version | Previous Version | Text Only | Print | Product List | Glossary On
Versions: 1 2 3 4 5 6 7 8 9 10 11 12 13 14 15 16 17 18 19 20 21 22 23 24 25 26 27 28 29 30 31 32 33 34 35 36 37 38 39 40 41 42 43 44 45 46 47 48 49 50
000
ASUS44 KMEG 031910
RWRMEG
MEMPHIS CWA HOURLY WEATHER ROUNDUP
NATIONAL WEATHER SERVICE MEMPHIS TN
200 PM CDT SUN MAY 03 2015

...WEST TENNESSEE...

CITY           SKY/WX    TMP DP  RH WIND       PRES   REMARKS
MEMPHIS INTL   MOSUNNY   80  49  33 VRB3      30.09F
NWS MEMPHIS      N/A     81 N/A N/A MISG        N/A
JACKSON        MOSUNNY   79  48  33 S14       30.10F
LEXINGTON      SUNNY     77  46  33 VRB7      30.10F
DYERSBURG      MOSUNNY   81  43  26 SW9       30.08F
PARIS          SUNNY     75  48  38 S13       30.10F


...EASTERN ARKANSAS...

CITY           SKY/WX    TMP DP  RH WIND       PRES   REMARKS
JONESBORO      MOSUNNY   79  52  38 S8        30.05F
WEST MEMPHIS   MOSUNNY   79  50  36 S8G21     30.07F
BATESVILLE     MOSUNNY   81  55  41 S9        30.04F
NEWPORT        MOSUNNY   82  53  36 S13G18    30.06F
WALNUT RIDGE   MOSUNNY   81  50  34 SW16      30.04F
BLYTHEVILLE    PTSUNNY   80  48  32 S10G22    30.07F
SEARCY         MOSUNNY   83  58  42 S12G17    30.06F
STUTTGART      MOSUNNY   84  55  37 S8        30.06F
PINE BLUFF     FAIR      82  56  40 S8        30.05F
MONTICELLO     SUNNY     83  54  36 VRB7      30.06F


...NORTH MISSISSIPPI...

CITY           SKY/WX    TMP DP  RH WIND       PRES   REMARKS
TUPELO         MOSUNNY   80  45  28 S8        30.10F
OXFORD         LGT RAIN  77  43  29 S6        30.11F
OLIVE BRANCH   PTSUNNY   79  48  34 S7        30.09F
TUNICA         MOSUNNY   81  48  32 W8        30.08F
CLARKSDALE     MOSUNNY   82  54  36 S6        30.08F
CORINTH        MOSUNNY   79  50  36 S8        30.11S
GREENWOOD      SUNNY     83  52  34 S7        30.08F
COLUMBUS       SUNNY     84  49  30 VRB3      30.11F
STARKVILLE     FAIR      79  50  36 S9        30.11F
GOLDEN TRIANGL MOSUNNY   79  54  41 S8        30.11F


...SOUTHEAST MISSOURI...

CITY           SKY/WX    TMP DP  RH WIND       PRES   REMARKS
WEST PLAINS    MOSUNNY   77  52  41 SW10      30.04F
POPLAR BLUFF   PTSUNNY   79  48  33 S12G22    30.04F
CAPE GIRARDEAU MOSUNNY   79  45  29 SW13G22   30.05F


...NORTHWEST ALABAMA...

CITY           SKY/WX    TMP DP  RH WIND       PRES   REMARKS
MUSCLE SHOALS  MOSUNNY   79  47  32 CALM      30.13F


...MIDDLE TENNESSEE...

CITY           SKY/WX    TMP DP  RH WIND       PRES   REMARKS
NASHVILLE      PTSUNNY   79  48  33 S13G20    30.11F
CLARKSVILLE    PTSUNNY   78  49  35 S8        30.10F
COLUMBIA       MOSUNNY   79  55  44 SE7       30.11F


...WESTERN KENTUCKY...

CITY           SKY/WX    TMP DP  RH WIND       PRES   REMARKS
PADUCAH        SUNNY     80  45  28 S9G18     30.07F
FORT CAMPBELL  PTSUNNY   77  51  39 S9        30.09F


...CENTRAL ARKANSAS...

CITY           SKY/WX    TMP DP  RH WIND       PRES   REMARKS
LITTLE ROCK    PTSUNNY   82  53  36 SW9       30.04F


SKY/WX REPORTED AS FAIR MEANS FEW OR NO CLOUDS BELOW
12 THOUSAND FEET.



USA.gov is the U.S. government's official web portal to all federal, state and local government web resources and services.